Terminal Aerodrome Forecast
Issued by NWS Corpus Christi, TX

Home | Current Version | Previous Version | Text Only | Print | Product List | Glossary On
Versions: 1 2 3 4 5 6 7 8 9 10 11 12 13 14 15 16 17 18
000
FTUS44 KCRP 311735
TAFCRP
TAF
KCRP 311735Z 3118/0118 15013KT P6SM SCT035
     FM312000 15015G21KT P6SM SCT035
     FM010100 14010KT P6SM SCT020
      TEMPO 0114/0116 BKN020=

USA.gov is the U.S. government's official web portal to all federal, state and local government web resources and services.